When you browse on this site, cookies collect data to enhance your experience and personalize the content and advertising you see.
Visit our Privacy Policy to learn more. By continuing to use the site, you agree to this use of cookies and data.
  • In Hungary
  • List of Countries
  • For 7 days
  • Water Temperature
  • Weather Map
  • News
  • Weather Widgets
  • user-avatar
    Login

    Hourly Weather Impfondo

    Today, 12 November, Tuesday

    Time Temperature Precipitation Wind Pressure Humidity
    00:00 +24°C° 0 mm 1 mps 729 mmHg 94%
    01:00 +24°C° 0 mm 1 mps 729 mmHg 94%
    02:00 +24°C° 0 mm 1 mps 729 mmHg 95%
    03:00 +24°C° 0 mm 1 mps 728 mmHg 96%
    04:00 +24°C° 0 mm 1 mps 728 mmHg 96%
    05:00 +24°C° 0 mm 1 mps 729 mmHg 95%
    06:00 +25°C° 0 mm 1 mps 729 mmHg 93%
    07:00 +25°C° 0 mm 1 mps 730 mmHg 91%
    08:00 +28°C° 0 mm 1 mps 730 mmHg 79%
    09:00 +30°C° 0 mm 1 mps 730 mmHg 68%
    10:00 +32°C° 0 mm 1 mps 730 mmHg 56%
    11:00 +33°C° 0 mm 1 mps 730 mmHg 55%
    12:00 +33°C° 0 mm 1 mps 729 mmHg 54%
    13:00 +34°C° 0 mm 1 mps 728 mmHg 52%
    14:00 +33°C° 0.1 mm 1 mps 727 mmHg 56%
    15:00 +32°C° 0.1 mm 1 mps 727 mmHg 60%
    16:00 +32°C° 0.1 mm 1 mps 726 mmHg 64%
    17:00 +30°C° 0.5 mm 1 mps 727 mmHg 73%
    18:00 +28°C° 0.5 mm 1 mps 727 mmHg 83%
    19:00 +25°C° 0.5 mm 1 mps 728 mmHg 93%
    20:00 +25°C° 0.1 mm 1 mps 728 mmHg 94%
    21:00 +25°C° 0.1 mm 1 mps 729 mmHg 95%
    22:00 +24°C° 0.1 mm 1 mps 729 mmHg 95%
    23:00 +22°C° 0 mm 0 mps 729 mmHg 96%

    Tomorrow, 13 November, Wednesday

    Time Temperature Precipitation Wind Pressure Humidity
    00:00 +22°C° 0 mm 0 mps 729 mmHg 96%
    01:00 +22°C° 0 mm 0 mps 729 mmHg 97%
    02:00 +22°C° 0.1 mm 0 mps 728 mmHg 97%
    03:00 +22°C° 0.1 mm 0 mps 728 mmHg 97%
    04:00 +22°C° 0.1 mm 0 mps 728 mmHg 97%
    05:00 +22°C° 0.3 mm 0 mps 729 mmHg 97%
    06:00 +22°C° 0.3 mm 0 mps 730 mmHg 96%
    07:00 +23°C° 0.3 mm 0 mps 730 mmHg 95%
    08:00 +25°C° 0 mm 0 mps 730 mmHg 85%
    09:00 +27°C° 0 mm 0 mps 730 mmHg 75%
    10:00 +32°C° 0 mm 1 mps 730 mmHg 64%
    11:00 +30°C° 0 mm 0 mps 729 mmHg 61%
    12:00 +31°C° 0 mm 0 mps 729 mmHg 58%
    13:00 +32°C° 0 mm 0 mps 728 mmHg 54%
    14:00 +31°C° 0 mm 0 mps 728 mmHg 55%
    15:00 +31°C° 0 mm 0 mps 727 mmHg 56%
    16:00 +33°C° 0 mm 1 mps 726 mmHg 57%
    17:00 +30°C° 0 mm 1 mps 727 mmHg 65%
    18:00 +26°C° 0 mm 0 mps 728 mmHg 73%
    19:00 +24°C° 0 mm 0 mps 728 mmHg 81%
    20:00 +24°C° 0 mm 0 mps 728 mmHg 83%
    21:00 +23°C° 0 mm 0 mps 729 mmHg 84%
    22:00 +23°C° 0 mm 0 mps 729 mmHg 86%
    23:00 +23°C° 0 mm 0 mps 729 mmHg 86%

    Day after tomorrow, 14 November, Thursday

    Time Temperature Precipitation Wind Pressure Humidity
    00:00 +23°C° 0 mm 0 mps 729 mmHg 86%
    01:00 +23°C° 0 mm 0 mps 728 mmHg 86%
    02:00 +22°C° 0 mm 0 mps 728 mmHg 87%
    03:00 +22°C° 0 mm 0 mps 728 mmHg 88%
    04:00 +22°C° 0 mm 0 mps 728 mmHg 88%
    05:00 +25°C° 0 mm 1 mps 729 mmHg 86%
    06:00 +26°C° 0 mm 1 mps 730 mmHg 84%
    07:00 +26°C° 0 mm 1 mps 730 mmHg 82%
    08:00 +28°C° 0 mm 1 mps 730 mmHg 73%
    09:00 +31°C° 0 mm 1 mps 730 mmHg 65%
    10:00 +33°C° 0 mm 1 mps 730 mmHg 57%
    11:00 +34°C° 0 mm 1 mps 729 mmHg 51%
    12:00 +35°C° 0 mm 1 mps 728 mmHg 46%
    13:00 +36°C° 0 mm 1 mps 727 mmHg 41%
    14:00 +35°C° 0 mm 1 mps 727 mmHg 46%
    15:00 +34°C° 0 mm 1 mps 727 mmHg 50%
    16:00 +34°C° 0 mm 1 mps 727 mmHg 55%
    17:00 +32°C° 0 mm 1 mps 727 mmHg 60%
    18:00 +30°C° 0 mm 1 mps 728 mmHg 65%
    19:00 +28°C° 0 mm 1 mps 728 mmHg 71%
    20:00 +27°C° 0 mm 1 mps 728 mmHg 76%
    21:00 +26°C° 0 mm 1 mps 729 mmHg 81%
    22:00 +26°C° 0 mm 1 mps 729 mmHg 85%
    23:00 +23°C° 0 mm 0 mps 729 mmHg 86%

    15 November, Friday

    Time Temperature Precipitation Wind Pressure Humidity
    00:00 +23°C° 0 mm 0 mps 729 mmHg 87%
    01:00 +23°C° 0 mm 0 mps 728 mmHg 88%
    02:00 +23°C° 0 mm 0 mps 728 mmHg 88%
    03:00 +23°C° 0 mm 0 mps 728 mmHg 87%
    04:00 +23°C° 0 mm 0 mps 728 mmHg 87%
    05:00 +24°C° 0 mm 0 mps 729 mmHg 86%
    06:00 +24°C° 0 mm 0 mps 729 mmHg 84%
    07:00 +27°C° 0 mm 1 mps 730 mmHg 82%
    08:00 +29°C° 0 mm 1 mps 730 mmHg 72%
    09:00 +32°C° 0 mm 1 mps 730 mmHg 61%
    10:00 +34°C° 0 mm 1 mps 730 mmHg 51%
    11:00 +35°C° 0 mm 1 mps 729 mmHg 47%
    12:00 +36°C° 0 mm 1 mps 728 mmHg 44%
    13:00 +37°C° 0 mm 1 mps 727 mmHg 41%
    14:00 +35°C° 0 mm 1 mps 726 mmHg 46%
    15:00 +34°C° 0 mm 1 mps 726 mmHg 52%
    16:00 +31°C° 0 mm 0 mps 725 mmHg 58%
    17:00 +29°C° 0.4 mm 0 mps 725 mmHg 67%
    18:00 +27°C° 0.4 mm 0 mps 726 mmHg 75%
    19:00 +25°C° 0.4 mm 0 mps 726 mmHg 83%
    20:00 +24°C° 2.1 mm 0 mps 727 mmHg 87%
    21:00 +24°C° 2.1 mm 0 mps 727 mmHg 92%
    22:00 +23°C° 2.1 mm 0 mps 728 mmHg 96%
    23:00 +23°C° 0.9 mm 0 mps 727 mmHg 96%

    16 November, Saturday

    Time Temperature Precipitation Wind Pressure Humidity
    00:00 +23°C° 0.9 mm 0 mps 727 mmHg 96%
    01:00 +23°C° 0.9 mm 0 mps 727 mmHg 96%
    02:00 +22°C° 1.1 mm 0 mps 727 mmHg 97%
    03:00 +22°C° 1.1 mm 0 mps 727 mmHg 98%
    04:00 +22°C° 1.1 mm 0 mps 727 mmHg 98%
    05:00 +23°C° 0 mm 0 mps 728 mmHg 97%
    06:00 +23°C° 0 mm 0 mps 728 mmHg 96%
    07:00 +24°C° 0 mm 0 mps 729 mmHg 95%
    08:00 +26°C° 0.7 mm 0 mps 728 mmHg 89%
    09:00 +28°C° 0.7 mm 0 mps 728 mmHg 83%
    10:00 +29°C° 0.7 mm 0 mps 728 mmHg 77%
    11:00 +32°C° 0.5 mm 1 mps 728 mmHg 69%
    12:00 +33°C° 0.5 mm 1 mps 727 mmHg 61%
    13:00 +34°C° 0.5 mm 1 mps 726 mmHg 53%
    14:00 +33°C° 0.7 mm 1 mps 726 mmHg 61%
    15:00 +31°C° 0.7 mm 1 mps 725 mmHg 69%
    16:00 +29°C° 0.7 mm 1 mps 725 mmHg 78%
    17:00 +28°C° 1.5 mm 1 mps 725 mmHg 84%
    18:00 +26°C° 1.5 mm 1 mps 726 mmHg 90%
    19:00 +25°C° 1.5 mm 1 mps 726 mmHg 97%
    20:00 +25°C° 3.9 mm 1 mps 727 mmHg 97%
    21:00 +25°C° 3.9 mm 1 mps 728 mmHg 98%
    22:00 +25°C° 3.9 mm 1 mps 728 mmHg 98%
    23:00 +25°C° 0.2 mm 1 mps 728 mmHg 98%

    17 November, Sunday

    Time Temperature Precipitation Wind Pressure Humidity
    00:00 +25°C° 0.2 mm 1 mps 728 mmHg 98%
    01:00 +24°C° 0.2 mm 1 mps 728 mmHg 97%
    02:00 +22°C° 0 mm 0 mps 728 mmHg 97%
    03:00 +22°C° 0 mm 0 mps 727 mmHg 98%
    04:00 +22°C° 0 mm 0 mps 727 mmHg 98%
    05:00 +23°C° 0 mm 0 mps 728 mmHg 97%
    06:00 +23°C° 0 mm 0 mps 728 mmHg 96%
    07:00 +23°C° 0 mm 0 mps 729 mmHg 95%
    08:00 +25°C° 0 mm 0 mps 729 mmHg 84%
    09:00 +30°C° 0 mm 1 mps 729 mmHg 73%
    10:00 +32°C° 0 mm 1 mps 730 mmHg 62%
    11:00 +34°C° 0 mm 1 mps 729 mmHg 56%
    12:00 +34°C° 0 mm 0 mps 728 mmHg 49%
    13:00 +36°C° 0 mm 0 mps 727 mmHg 43%
    14:00 +35°C° 0.3 mm 1 mps 727 mmHg 52%
    15:00 +33°C° 0.3 mm 1 mps 726 mmHg 62%
    16:00 +30°C° 0.3 mm 2 mps 726 mmHg 72%
    17:00 +29°C° 0.4 mm 1 mps 726 mmHg 80%
    18:00 +27°C° 0.4 mm 1 mps 727 mmHg 88%
    19:00 +23°C° 0.4 mm 0 mps 728 mmHg 96%
    20:00 +23°C° 1.1 mm 0 mps 728 mmHg 96%
    21:00 +22°C° 1.1 mm 0 mps 728 mmHg 96%
    22:00 +22°C° 1.1 mm 0 mps 729 mmHg 96%
    23:00 +22°C° 0 mm 0 mps 729 mmHg 96%
    Show more